Temperature
22 22 21 21 21 21 21 21 20 20 20 20 19 19 19 19 19 18 18 18 18 18 18 17 17 17 17 17 17 17 17 17 16 17 16 16 16 16 16 16 15 15 15
22 22 21 21 21 21 21 21 20 20 20 19 19 19 19 19 18 18 18 18 18 18 17 17 17 17 17 17 17 16 16 16 16 16 16 16 16 16 16 15 15 15 15
22 22 21 21 21 21 21 20 20 20 20 19 19 19 19 19 18 18 18 18 18 18 17 17 17 17 17 17 16 16 16 16 16 16 16 15 15 15 15 15 15 15 15
22 22 21 21 21 21 21 20 20 20 20 19 19 19 19 19 18 18 18 18 18 17 17 17 17 17 17 17 16 16 16 16 16 15 15 15 15 15 15 15 15 14 14
22 22 21 21 21 20 20 20 20 20 19 19 19 19 19 18 18 18 18 18 18 17 17 17 17 17 17 16 16 16 16 16 15 15 15 15 14 14 14 14 14 14 14
22 21 21 21 20 20 20 20 20 19 19 19 19 19 19 18 18 18 18 18 17 17 17 17 17 17 16 16 16 16 16 15 15 15 15 14 14 14 14 14 14 13 13
21 21 21 20 20 20 19 19 19 19 19 19 18 18 18 18 18 18 17 17 17 17 17 17 16 16 16 16 16 15 15 15 15 15 14 14 14 14 14 14 13 13 13
21 20 20 20 19 19 19 19 19 19 19 18 18 18 18 18 18 17 17 17 17 17 17 16 16 16 16 16 15 15 15 15 14 14 14 14 14 14 13 13 13 13 13
20 20 19 19 19 19 19 19 18 18 18 18 18 18 18 18 17 17 17 17 17 17 16 16 16 16 16 16 15 15 14 14 14 14 14 14 14 13 13 13 13 13 12
20 19 19 19 19 19 18 18 18 18 18 17 17 17 17 17 17 17 17 16 16 16 16 16 16 15 15 15 15 14 14 14 14 14 14 13 13 13 13 13 13 12 12
19 19 19 18 18 18 18 18 18 17 17 17 17 17 17 17 16 16 16 16 16 15 15 15 15 15 15 15 14 14 13 13 13 13 13 13 13 13 12 12 12 12 12
18 18 18 18 17 17 17 17 17 17 17 16 16 16 16 16 16 16 16 16 15 15 15 15 15 15 14 14 14 13 13 13 13 12 12 12 12 12 12 12 12 12 12
17 17 17 17 17 17 17 16 16 16 16 16 16 16 15 16 16 15 15 15 15 14 14 14 14 14 14 13 13 13 12 12 12 12 12 12 12 12 12 12 12 11 11
16 16 16 16 16 16 16 16 16 15 15 15 15 15 15 15 15 15 15 14 14 14 14 13 13 13 13 13 12 12 12 12 12 12 12 12 11 11 11 11 11 11 11
15 15 15 16 16 15 15 15 15 15 15 15 15 15 14 14 15 15 15 14 14 13 13 13 13 13 12 12 12 12 12 11 11 11 11 11 11 11 11 11 11 10 10
15 15 15 15 15 15 15 15 15 15 15 15 15 14 14 14 14 14 14 14 13 13 13 12 12 12 12 12 12 12 11 11 11 11 11 11 11 11 11 10 10 10 10
15 14 14 14 15 14 14 14 14 14 14 14 14 14 14 14 14 14 13 13 13 13 12 12 12 12 12 11 11 11 11 11 11 11 10 10 10 10 10 10 10 10 10
14 14 14 14 14 14 14 14 14 14 14 14 13 13 13 13 13 13 13 13 12 12 12 12 11 11 11 11 11 11 11 10 10 10 10 10 10 10 10 10 10 10 9
14 14 14 14 14 14 14 14 14 14 13 13 13 13 13 13 13 12 12 12 12 12 11 11 11 11 11 11 10 10 10 10 10 10 10 10 10 10 10 10 9 9 9
13 13 14 13 14 13 13 13 13 13 13 13 13 13 13 12 12 12 11 11 11 11 11 11 11 10 10 10 10 10 10 10 10 9 9 9 9 9 9 9 9 9 9
13 13 13 13 13 13 13 13 13 13 13 13 13 13 12 12 12 12 11 11 11 11 11 10 10 10 10 10 10 9 9 9 9 9 9 9 9 9 8 8 8 8 8
13 13 13 13 13 13 13 13 12 12 12 12 12 12 12 11 11 11 11 11 10 10 10 10 10 9 9 9 9 9 9 9 9 8 8 8 8 8 8 8 8 8 8
12 12 12 13 13 13 12 12 12 12 12 12 12 11 11 11 11 10 10 10 10 10 9 9 9 9 9 9 9 9 8 8 8 8 8 8 7 7 7 7 7 7 7
12 12 12 12 12 12 12 12 12 12 11 11 11 11 11 11 10 10 10 9 9 9 9 9 9 9 8 8 8 8 8 8 8 7 7 7 7 7 6 6 6 6 6
12 12 12 12 12 12 12 11 11 11 11 11 11 10 10 10 10 10 9 9 9 9 8 8 8 8 8 8 8 7 7 7 7 7 7 7 6 6 6 6 6 6 6
11 11 11 11 11 11 11 11 11 10 10 10 10 10 10 9 9 9 9 9 8 8 8 8 8 8 7 7 7 7 7 7 6 6 6 6 5 5 5 5 5 5 5
Wind_Speed
9 8 7 8 8 7 6 6 5 4 4 4 5 5 5 5 5 4 5 4 4 3 2 2 1 1 2 2 2 3 3 2 3 3 2 1 1 1 1 1 3 3 3
9 7 7 6 7 7 7 6 6 5 5 5 5 5 5 5 5 5 5 4 3 3 2 1 1 1 1 2 2 3 3 2 3 3 2 1 1 0 1 2 1 1 2
8 7 6 6 6 6 6 6 5 6 5 6 6 6 5 5 4 4 4 3 3 2 2 1 1 1 2 2 2 3 3 3 2 2 3 1 1 1 1 2 1 1 1
7 8 7 7 6 6 6 5 6 6 6 6 6 6 6 5 4 4 4 4 3 2 1 1 0 0 1 2 3 2 2 3 2 2 2 1 1 1 1 1 1 1 1
6 7 8 7 6 6 6 6 6 6 7 6 6 6 5 5 5 5 4 4 3 2 2 2 1 2 1 1 2 2 3 3 2 2 1 1 1 2 2 2 2 1 1
6 8 7 6 6 6 6 6 6 6 5 6 6 6 6 5 5 5 4 4 4 3 3 2 3 3 2 1 0 1 1 2 3 3 1 1 1 2 2 2 2 2 1
5 6 6 6 6 6 7 6 6 6 5 5 5 5 5 4 6 6 5 5 5 4 3 3 3 2 2 1 2 2 1 2 3 2 2 2 1 2 2 3 2 2 2
4 4 5 6 6 6 6 6 6 5 5 5 5 5 5 4 6 6 6 5 5 4 3 3 2 2 1 1 1 1 1 1 2 1 1 2 2 2 2 3 3 3 2
4 4 4 5 6 6 7 6 5 4 5 5 5 5 5 4 5 5 5 4 4 4 3 2 2 3 2 2 1 2 1 1 1 1 1 2 2 3 2 2 3 2 2
4 4 4 5 6 6 6 5 4 4 4 4 4 4 5 4 5 6 5 4 4 4 4 4 3 3 3 1 1 2 2 2 1 1 1 2 3 3 3 2 2 2 2
3 3 3 4 5 6 5 4 5 5 5 5 4 4 4 5 5 5 5 4 4 4 4 4 3 5 4 2 2 2 2 3 3 2 1 1 1 1 1 1 1 1 1
3 3 3 4 5 4 4 5 5 5 6 6 6 5 4 4 5 6 7 5 4 3 3 4 4 7 5 4 3 3 3 3 2 1 1 1 1 1 1 0 0 1 1
3 3 3 3 4 4 5 5 4 4 4 5 5 4 4 3 4 6 7 6 5 3 2 5 6 7 6 5 6 4 3 2 2 2 2 1 1 1 1 1 1 1 1
4 3 3 3 3 3 3 4 4 4 4 5 4 4 4 4 4 4 5 5 5 4 3 5 6 6 5 4 4 4 4 3 3 2 1 1 1 1 1 1 1 1 1
4 4 4 3 2 2 2 2 3 3 4 4 4 4 5 5 5 6 5 5 5 5 4 3 3 4 4 4 4 4 4 3 3 3 2 1 1 1 1 1 1 2 1
4 4 4 3 3 3 2 1 2 2 3 3 3 3 3 4 5 6 6 6 6 6 5 4 5 5 5 5 5 4 4 3 3 3 2 1 2 2 2 1 1 1 2
5 5 4 4 3 3 3 3 3 1 2 2 3 4 5 5 5 6 6 5 6 6 5 5 4 4 4 4 4 4 4 3 2 3 2 2 2 2 1 1 1 1 1
5 6 5 4 4 4 4 4 4 4 4 3 3 5 7 6 5 5 5 4 4 5 5 4 4 4 4 3 3 2 2 2 2 3 2 2 2 2 2 2 1 1 2
5 5 4 3 4 3 3 4 4 4 4 4 4 4 5 5 4 5 5 4 5 5 5 4 4 4 3 2 2 2 2 2 1 2 2 2 2 2 2 2 2 1 2
4 5 5 4 4 4 3 3 3 4 4 4 4 4 4 4 4 4 4 4 3 3 3 3 2 2 2 2 1 1 1 1 1 1 1 1 2 1 2 2 2 1 2
4 3 4 4 4 3 3 3 3 3 4 4 4 5 7 5 5 5 4 4 3 3 3 2 1 1 1 1 1 1 0 0 0 1 1 1 1 1 2 2 2 2 2
4 3 3 3 3 2 2 2 2 3 4 3 3 4 6 4 3 3 3 3 3 3 2 2 2 1 1 0 1 1 0 1 1 1 1 2 2 2 1 1 2 2 2
4 4 3 3 3 3 3 3 3 3 3 2 3 4 4 2 2 2 2 2 2 2 2 1 1 1 1 1 2 2 2 1 1 1 2 2 2 2 2 2 2 3 2
4 3 3 3 2 3 3 3 2 2 2 3 3 4 4 3 3 3 3 2 2 1 1 2 2 2 2 3 3 4 4 3 3 2 2 2 2 2 2 2 2 2 2
3 2 2 2 2 2 1 1 1 2 2 3 3 3 3 3 2 2 2 2 3 2 2 2 2 3 4 5 4 4 6 6 4 3 2 1 1 1 1 2 2 2 2
2 1 1 1 1 1 2 2 2 3 3 3 3 3 3 3 3 2 2 3 2 2 2 2 4 5 5 5 6 7 7 5 4 3 2 1 1 1 1 1 2 2 2
Wind_Direction
188 194 195 190 196 200 203 209 213 215 202 193 195 200 201 203 206 207 220 212 215 225 244 235 250 288 322 316 313 309 308 297 283 298 326 325 331 345 344 293 227 180 174
186 187 193 190 193 200 205 204 202 203 204 201 202 202 205 206 200 205 221 216 212 217 231 247 274 287 304 303 309 301 296 284 280 291 301 287 288 286 281 272 276 172 151
182 182 187 195 199 204 204 202 200 200 206 206 202 203 206 202 197 200 207 207 212 218 223 223 260 307 308 316 299 306 310 308 298 283 287 291 313 336 319 312 323 349 192
184 187 187 196 204 208 208 202 199 199 202 201 201 202 198 194 194 197 199 199 200 196 188 194 200 249 316 304 287 304 306 308 293 274 280 304 342 328 346 326 316 304 298
184 193 192 193 201 206 205 203 202 203 205 195 200 200 193 194 201 197 199 199 185 184 195 189 153 107 83 330 308 333 327 311 300 283 277 314 347 356 351 318 324 302 316
188 198 193 189 193 195 198 200 200 198 201 196 198 194 193 201 172 171 186 179 178 184 196 195 174 146 158 176 308 333 305 302 315 315 318 330 338 349 335 317 334 325 306
199 198 189 190 193 193 197 194 197 197 197 199 205 193 181 178 165 158 182 183 178 182 190 203 228 170 171 193 213 213 217 253 263 292 323 324 329 336 315 306 308 303 286
206 208 191 189 195 197 200 199 203 200 198 198 199 193 182 187 170 167 181 186 181 182 188 196 190 137 59 11 265 229 235 250 273 254 293 310 321 309 292 286 280 273 250
209 213 204 199 204 205 205 205 204 200 202 199 195 188 184 185 180 173 180 189 194 193 181 163 161 142 97 28 283 254 252 270 346 50 194 255 275 271 283 303 298 297 296
231 223 211 204 208 211 207 198 196 200 205 199 193 189 184 181 177 175 191 199 200 194 167 144 125 132 130 106 287 285 270 271 277 279 255 249 239 236 235 236 287 296 318
272 247 227 207 208 208 197 196 193 194 192 191 189 190 184 179 174 179 193 214 208 198 186 175 169 161 157 179 254 277 264 280 264 236 230 231 229 215 206 218 219 244 302
276 264 250 236 233 215 198 202 197 195 191 188 184 183 179 173 172 190 194 215 234 205 193 175 169 168 176 198 226 265 274 276 264 246 235 213 219 242 206 154 135 236 218
283 261 252 251 239 206 193 196 190 191 201 201 195 187 180 179 177 179 187 203 228 210 180 163 163 174 189 206 220 232 238 248 251 249 241 235 223 221 193 185 219 227 229
278 269 251 234 227 203 192 192 189 198 206 200 199 198 191 192 188 191 198 200 202 198 187 169 169 183 207 216 195 211 218 238 251 254 247 231 165 178 197 194 215 227 240
280 260 241 234 213 196 199 222 204 192 203 206 207 201 200 208 204 187 196 206 207 208 188 179 187 188 197 200 201 202 206 218 243 258 255 231 219 223 226 214 226 243 260
268 260 250 239 222 205 184 166 52 162 169 171 179 183 205 189 170 171 183 193 191 188 185 193 197 200 203 202 202 203 202 211 236 243 247 236 235 238 240 227 218 246 265
264 261 257 243 234 225 208 202 201 159 117 134 164 164 165 162 165 176 180 186 191 179 193 203 203 208 213 214 210 203 203 204 224 239 233 238 245 249 251 245 222 245 270
265 261 251 236 225 221 220 217 206 194 181 176 170 167 167 170 176 187 178 164 181 192 209 202 206 213 215 221 219 216 215 209 214 237 232 236 243 247 246 244 229 232 261
269 261 248 239 237 233 227 219 208 195 187 162 159 159 171 177 185 193 181 201 199 200 208 211 213 216 215 215 221 227 221 212 216 230 243 250 251 254 261 269 261 252 258
264 242 228 228 230 220 216 211 205 195 189 184 173 161 161 173 183 182 189 213 214 201 212 217 206 207 203 207 206 211 218 203 209 224 233 253 255 260 273 276 283 279 273
277 247 224 228 232 221 214 206 200 193 190 190 175 165 170 186 182 178 186 192 199 202 206 215 201 181 177 183 165 179 218 229 192 287 273 263 267 264 271 280 293 298 304
273 259 241 240 232 219 222 214 208 206 207 193 168 165 181 193 186 177 181 186 195 196 196 202 195 161 131 91 96 113 114 56 37 0 322 303 293 286 281 285 301 302 296
264 257 246 241 233 202 213 217 213 211 201 170 162 159 170 190 180 168 178 186 192 181 180 183 166 139 121 96 87 87 84 66 33 354 317 305 309 311 318 335 323 320 334
267 262 257 251 233 218 220 210 202 189 178 172 170 165 169 175 180 168 175 168 163 174 160 161 152 133 117 91 82 85 75 64 45 17 352 324 312 331 352 341 325 326 332
260 258 258 257 244 217 190 185 183 180 181 178 171 165 165 166 175 175 173 158 152 154 142 142 139 118 102 93 94 92 88 77 60 27 339 306 291 329 350 322 316 317 325
294 287 274 262 223 186 173 180 186 186 182 175 170 166 164 171 177 165 151 146 143 142 137 129 112 105 103 102 100 100 95 81 56 20 334 292 277 64 30 310 310 315 321
Height
1507 1509 1511 1513 1515 1516 1518 1519 1521 1522 1523 1524 1524 1524 1525 1525 1526 1526 1527 1527 1527 1528 1527 1527 1527 1527 1526 1526 1526 1526 1525 1525 1524 1523 1522 1521 1520 1518 1517 1517 1516 1515 1515
1504 1506 1508 1510 1512 1513 1515 1516 1518 1519 1520 1520 1521 1522 1522 1523 1523 1523 1524 1525 1525 1525 1525 1525 1525 1524 1524 1523 1523 1523 1522 1522 1522 1520 1519 1518 1517 1516 1515 1515 1514 1513 1512
1501 1503 1505 1507 1509 1510 1512 1513 1514 1515 1516 1517 1518 1518 1519 1520 1520 1520 1521 1522 1522 1522 1522 1522 1522 1521 1521 1521 1520 1520 1520 1519 1519 1518 1517 1517 1516 1515 1513 1513 1512 1511 1510
1498 1500 1502 1503 1505 1507 1508 1509 1510 1511 1512 1513 1514 1515 1515 1516 1517 1518 1518 1519 1519 1519 1519 1519 1519 1519 1519 1518 1518 1517 1517 1516 1516 1516 1515 1514 1514 1513 1512 1511 1510 1509 1508
1495 1496 1498 1499 1501 1503 1504 1505 1506 1507 1508 1509 1510 1511 1512 1513 1514 1515 1515 1516 1516 1516 1516 1516 1516 1516 1516 1516 1515 1515 1514 1514 1513 1513 1513 1512 1511 1510 1510 1509 1508 1507 1506
1491 1493 1495 1496 1497 1498 1500 1502 1503 1504 1504 1505 1505 1507 1508 1509 1510 1511 1512 1513 1513 1513 1513 1513 1513 1513 1513 1513 1512 1512 1511 1511 1511 1510 1509 1509 1508 1508 1507 1507 1506 1505 1504
1488 1490 1491 1492 1493 1494 1495 1497 1498 1499 1500 1501 1502 1503 1504 1504 1505 1507 1509 1509 1509 1510 1510 1510 1510 1510 1510 1509 1509 1509 1508 1508 1508 1508 1506 1506 1505 1505 1505 1504 1503 1503 1502
1485 1486 1487 1488 1489 1491 1491 1492 1494 1495 1496 1497 1497 1498 1499 1500 1500 1502 1504 1505 1505 1506 1506 1507 1507 1507 1507 1506 1506 1505 1505 1505 1504 1504 1504 1503 1503 1502 1502 1502 1501 1501 1500
1481 1482 1483 1484 1485 1486 1487 1488 1490 1491 1492 1492 1493 1494 1495 1496 1497 1498 1500 1501 1501 1501 1502 1503 1504 1503 1504 1503 1503 1503 1502 1502 1502 1501 1501 1501 1500 1500 1499 1499 1499 1498 1498
1477 1478 1479 1479 1480 1482 1483 1484 1486 1487 1488 1489 1490 1491 1491 1492 1493 1494 1496 1497 1497 1498 1498 1499 1500 1500 1500 1500 1500 1500 1500 1499 1499 1499 1498 1498 1498 1497 1497 1496 1496 1496 1496
1474 1474 1475 1475 1475 1476 1478 1480 1480 1482 1483 1484 1486 1486 1487 1488 1489 1490 1492 1492 1493 1494 1494 1495 1495 1496 1497 1497 1497 1497 1497 1497 1497 1496 1496 1496 1495 1495 1495 1494 1494 1494 1494
1470 1471 1471 1471 1471 1472 1473 1475 1476 1477 1478 1478 1480 1481 1482 1484 1484 1486 1487 1489 1490 1490 1490 1491 1492 1493 1493 1493 1494 1494 1495 1495 1494 1494 1494 1493 1493 1493 1493 1492 1492 1491 1491
1466 1466 1467 1467 1467 1467 1468 1470 1471 1472 1474 1475 1476 1476 1478 1479 1480 1482 1483 1485 1485 1486 1487 1487 1489 1489 1490 1490 1491 1492 1492 1492 1492 1492 1492 1491 1491 1491 1491 1490 1490 1489 1489
1462 1462 1463 1463 1463 1463 1464 1465 1466 1467 1468 1469 1470 1471 1473 1475 1475 1477 1478 1480 1481 1482 1483 1484 1485 1486 1487 1487 1488 1488 1488 1489 1489 1489 1489 1489 1489 1489 1488 1488 1487 1487 1486
1459 1459 1459 1459 1459 1459 1460 1461 1461 1462 1464 1465 1466 1467 1469 1470 1471 1472 1474 1475 1477 1478 1479 1480 1481 1482 1483 1483 1484 1484 1485 1485 1486 1487 1487 1487 1487 1486 1486 1486 1485 1485 1484
1455 1456 1455 1456 1456 1456 1456 1456 1457 1459 1460 1462 1463 1464 1465 1466 1468 1469 1470 1472 1473 1475 1476 1476 1477 1478 1479 1480 1480 1481 1481 1482 1483 1484 1484 1484 1484 1484 1484 1484 1483 1483 1482
1452 1452 1451 1452 1452 1452 1452 1452 1452 1454 1456 1458 1459 1460 1461 1462 1464 1465 1467 1468 1469 1471 1472 1473 1474 1475 1476 1477 1477 1477 1478 1478 1479 1481 1481 1481 1482 1481 1481 1481 1481 1481 1480
1448 1448 1448 1448 1448 1448 1448 1448 1449 1450 1451 1453 1455 1456 1457 1459 1460 1462 1463 1464 1465 1467 1468 1469 1470 1472 1472 1473 1474 1474 1475 1475 1476 1477 1478 1478 1479 1479 1479 1478 1478 1478 1478
1444 1444 1443 1443 1444 1445 1445 1445 1445 1446 1448 1449 1451 1452 1454 1456 1457 1458 1459 1460 1461 1462 1464 1466 1467 1468 1469 1469 1470 1471 1471 1472 1473 1474 1474 1475 1476 1476 1476 1475 1475 1475 1475
1439 1439 1440 1439 1441 1441 1442 1441 1442 1443 1445 1446 1447 1449 1450 1452 1453 1454 1455 1456 1457 1459 1461 1462 1463 1464 1465 1466 1466 1467 1468 1469 1469 1470 1471 1471 1472 1472 1472 1472 1472 1472 1472
1436 1436 1436 1437 1437 1438 1439 1439 1439 1440 1441 1443 1444 1445 1446 1448 1449 1451 1452 1453 1454 1455 1457 1458 1459 1460 1462 1462 1462 1463 1464 1464 1465 1466 1467 1468 1468 1469 1469 1469 1469 1469 1469
1433 1432 1433 1434 1435 1435 1435 1436 1436 1437 1439 1439 1440 1442 1444 1445 1446 1448 1449 1450 1451 1452 1453 1454 1456 1457 1458 1458 1459 1459 1460 1461 1461 1462 1463 1464 1465 1465 1466 1466 1466 1466 1465
1430 1430 1430 1430 1431 1431 1432 1433 1434 1435 1436 1437 1438 1439 1441 1442 1444 1445 1446 1447 1449 1450 1451 1452 1453 1454 1455 1455 1456 1457 1457 1457 1458 1459 1459 1460 1461 1462 1462 1463 1463 1463 1462
1427 1427 1427 1427 1428 1428 1429 1430 1431 1432 1433 1434 1435 1436 1438 1439 1441 1442 1443 1444 1446 1447 1448 1449 1450 1451 1452 1453 1453 1454 1454 1455 1455 1455 1456 1456 1457 1457 1458 1459 1459 1460 1460
1424 1424 1424 1425 1425 1426 1426 1427 1428 1429 1430 1431 1433 1434 1435 1437 1438 1440 1441 1442 1443 1444 1445 1446 1447 1448 1449 1450 1450 1451 1451 1451 1451 1451 1452 1453 1453 1454 1454 1455 1456 1456 1456
1422 1422 1423 1423 1423 1423 1424 1425 1426 1426 1427 1429 1430 1431 1433 1434 1436 1438 1438 1439 1441 1442 1443 1444 1445 1446 1446 1447 1447 1447 1447 1448 1448 1448 1449 1449 1450 1451 1451 1452 1453 1453 1453